Weather in Petrolina

Brazil     9°23′46″S   40°31′10″W
temp.,
°C
wind,
m/s
gust,
m/s
humid.,
%
clouds,
%
prec.,
mm/h
press.,
hPa
HPBL,
m
17 may, mon
mon1700:00+23se71176100 0.0 1016658
03:00+21se7118391 0.0 1015573
06:00+20se6128753 0.0 1016585
09:00+24se9106341 0.0 1017991
12:00+30ese774233 0.0 10141738
15:00+31ese773734 0.0 10112138
18:00+28ese584691 0.0 1013333
21:00+26se6115164 0.0 1015498
18 may, tue
tue1800:00+23ese611725 0.0 1015371
03:00+21se5108358 0.0 1014288
06:00+20se6118542 0.0 1015333
09:00+26se78545 0.0 1016848
12:00+31ese663710 0.0 10131655
15:00+33se643423 0.0 10102372
18:00+29sse694359 0.0 1012167
21:00+27ese585035 0.0 1014444
19 may, wed
wed1900:00+24se59652 0.0 1014223
03:00+22se51078100 0.0 1014257
06:00+20ese5986100 0.0 1015276
09:00+26ese56588 0.0 1016887
12:00+32ese56379 0.0 10131902
15:00+33se5531100 0.0 10102458
18:00+29sse7113986 0.0 1012303
21:00+26se8144796 0.0 1014443
20 may, thu
thu2000:00+23se7126357 0.0 1014349
03:00+21se511815 0.0 1013331
06:00+20ese48890 0.0 1015240
09:00+27ese67565 0.0 1016915
12:00+32se77365 0.0 10131902
15:00+31se87370 0.0 10111596
18:00+27sse610480 0.0 1012262
21:00+25se612570 0.0 1014294
21 may, fri
fri2100:00+23ese713730 0.0 1014359
03:00+21se49860 0.0 1013266
06:00+20se47925 0.0 1015205
09:00+26ese7857100 0.0 1016898
12:00+32se783328 0.0 10131670
15:00+34se77275 0.0 10102158
18:00+28sse711404 0.0 1011205
21:00+26se713482 0.0 1014345